Starlink 32142

operational
NORAD ID: 60291 Int'l Des: 2024-132 Owner: SPXS Country: US Constellation: starlink
LEOCIRCULAR

关于 Starlink 32142

正在加载描述...

实时位置

正在加载3D地球...

即将过境

高度历史

Altitude vs Time

uPlot chart will show altitude changes over time

两行轨道根数

1 60291U 24132P 25261.05896419 .00002108 00000-0 83288-4 0 9992
2 60291 53.1593 134.0132 0001262 60.7646 299.3481 15.30193283 65136
Epoch: Sep 18, 2025 • Age: 11 hours

当前状态

高度 494.5 km
速度 7.62 km/s
星下点 -53.08°S, 142.77°W
发射日期 Jul 28, 2024
运行时间 1.1 years
类型 internet

技术详情

分类 Payload
质量 730.00 kg
干质量 700.00 kg
总质量 730.00 kg
长度 0.30 m
直径 4.10 m
跨度 29.00 m
形状 Box + pan
制造商 SPXS
平台类型 Starlink V2M
阶段状态 In Orbit
所有者/国家 SPXS/US

大型星座

Loading constellations...